G4WLC-1 Weather Reports


time (UTC)temp
C
wind
direction
speed
KPH
gust
KPH
rain 1hr
cm
rain 24hr
cm
rain mn
cm
humidity
%
barometer
mb
20260510190749 10 348 0.0 1.6 0.00 0.00 0.00 65 1014.8
20260510190249 10 23 0.0 1.6 0.00 0.00 0.00 65 1014.7
20260510185749 10 261 0.0 1.6 0.00 0.00 0.00 64 1014.7
20260510185249 10 11 0.0 6.4 0.00 0.00 0.00 62 1014.8
20260510184749 11 319 0.0 4.8 0.00 0.00 0.00 62 1014.8
20260510184249 11 326 0.0 4.8 0.00 0.00 0.00 62 1014.8
20260510183749 11 350 0.0 3.2 0.00 0.00 0.00 60 1014.9
20260510183413 12 268 1.6 9.7 0.00 0.00 0.00 58 1014.9
20260510183249 12 268 1.6 9.7 0.00 0.00 0.00 58 1014.9
20260510182749 12 100 1.6 16.1 0.00 0.00 0.00 59 1015.0
20260510182249 12 344 0.0 6.4 0.00 0.00 0.00 58 1014.9
20260510181749 12 23 0.0 1.6 0.00 0.00 0.00 58 1014.9
20260510181249 12 354 0.0 6.4 0.00 0.00 0.00 59 1014.9
20260510180749 12 342 0.0 6.4 0.00 0.00 0.00 58 1014.9
20260510180249 13 139 0.0 1.6 0.00 0.00 0.00 57 1014.9
20260510175749 13 126 0.0 4.8 0.00 0.00 0.00 58 1014.8
20260510175249 13 275 1.6 8.0 0.00 0.00 0.00 59 1014.9
20260510174749 13 9 1.6 8.0 0.00 0.00 0.00 54 1014.8
20260510174249 14 79 0.0 4.8 0.00 0.00 0.00 57 1014.9
20260510173749 13 319 0.0 4.8 0.00 0.00 0.00 59 1014.9
20260510173249 13 340 0.0 6.4 0.00 0.00 0.00 57 1015.1
20260510172749 13 320 0.0 1.6 0.00 0.00 0.00 62 1015.1
20260510172249 12 305 0.0 4.8 0.00 0.00 0.00 60 1015.1
20260510171749 12 32 0.0 8.0 0.00 0.00 0.00 60 1015.1
20260510171249 13 271 0.0 4.8 0.00 0.00 0.00 60 1015.1
20260510170749 13 273 0.0 1.6 0.00 0.00 0.00 61 1015.2
20260510170249 13 283 0.0 1.6 0.00 0.00 0.00 62 1015.2
20260510165749 13 290 1.6 8.0 0.00 0.00 0.00 59 1015.3
20260510165249 13 75 0.0 6.4 0.00 0.00 0.00 58 1015.5
20260510164749 14 342 0.0 8.0 0.00 0.00 0.00 57 1015.5
20260510164249 15 266 0.0 6.4 0.00 0.00 0.00 59 1015.4
20260510163749 15 312 0.0 4.8 0.00 0.00 0.00 60 1015.4
20260510163249 13 7 1.6 6.4 0.00 0.00 0.00 60 1015.4
20260510162749 13 88 0.0 6.4 0.00 0.00 0.00 63 1015.7
20260510162249 13 292 0.0 1.6 0.00 0.00 0.00 63 1015.7
20260510161749 13 356 1.6 8.0 0.00 0.00 0.00 59 1015.7
20260510161249 13 13 1.6 4.8 0.00 0.00 0.00 60 1015.7
20260510160749 14 349 1.6 8.0 0.00 0.00 0.00 61 1015.8
20260510160249 13 333 0.0 8.0 0.00 0.00 0.00 65 1015.8
20260510155749 13 319 0.0 3.2 0.00 0.00 0.00 64 1015.8
20260510155249 13 358 1.6 4.8 0.00 0.00 0.00 60 1015.9
20260510154749 13 94 1.6 8.0 0.00 0.00 0.00 61 1016.1
20260510154249 14 303 1.6 9.7 0.00 0.00 0.00 59 1016.0
20260510153749 14 73 1.6 6.4 0.00 0.00 0.00 58 1015.9
20260510153249 13 31 0.0 3.2 0.00 0.00 0.00 68 1016.1
20260510152749 13 98 1.6 1.6 0.00 0.00 0.00 65 1016.2
20260510152249 13 308 1.6 6.4 0.00 0.00 0.00 63 1016.2
20260510151749 13 298 0.0 6.4 0.00 0.00 0.00 63 1016.3
20260510151249 13 13 0.0 4.8 0.00 0.00 0.00 64 1016.4
20260510150941 13 297 0.0 4.8 0.00 0.00 0.00 66 1016.5
20260510150749 13 146 0.0 4.8 0.00 0.00 0.00 64 1016.4
20260510150249 13 297 0.0 4.8 0.00 0.00 0.00 66 1016.5
20260510145749 13 18 1.6 4.8 0.00 0.00 0.00 64 1016.6
20260510145249 13 15 1.6 9.7 0.00 0.00 0.00 66 1016.7
20260510144749 13 0 1.6 6.4 0.00 0.00 0.00 66 1016.7
20260510144249 13 83 1.6 8.0 0.00 0.00 0.00 66 1016.9
20260510143749 13 38 1.6 11.3 0.00 0.00 0.00 63 1016.8
20260510143249 14 89 1.6 4.8 0.00 0.00 0.00 66 1016.9
20260510142749 13 328 1.6 8.0 0.00 0.00 0.00 67 1016.9
20260510142249 13 8 1.6 6.4 0.00 0.00 0.00 68 1016.9
20260510141749 13 259 1.6 6.4 0.00 0.00 0.00 69 1017.1
20260510141249 13 350 1.6 4.8 0.00 0.00 0.00 68 1017.1
20260510140750 13 247 1.6 6.4 0.00 0.00 0.00 70 1017.3
20260510140250 12 36 1.6 4.8 0.00 0.00 0.00 68 1017.2
20260510135749 12 119 1.6 12.9 0.00 0.00 0.00 70 1017.2
20260510135250 13 76 1.6 8.0 0.00 0.00 0.00 69 1017.3
20260510134750 13 40 1.6 8.0 0.00 0.00 0.00 70 1017.3
20260510134250 12 18 1.6 9.7 0.00 0.00 0.00 69 1017.4
20260510133750 12 61 1.6 9.7 0.00 0.00 0.00 70 1017.3
20260510133250 12 274 1.6 4.8 0.00 0.00 0.00 71 1017.2
20260510132750 12 257 1.6 12.9 0.00 0.00 0.00 68 1017.2
20260510132250 12 31 1.6 12.9 0.00 0.00 0.00 71 1017.3
20260510131750 12 333 0.0 6.4 0.00 0.00 0.00 72 1017.1
20260510131250 11 263 1.6 6.4 0.00 0.00 0.00 75 1017.2
20260510130750 11 83 1.6 9.7 0.00 0.00 0.00 73 1017.2
20260510130250 11 84 1.6 4.8 0.00 0.00 0.00 76 1017.3
20260510125750 11 265 1.6 6.4 0.00 0.00 0.00 75 1017.3
20260510125250 11 154 1.6 6.4 0.00 0.00 0.00 74 1017.2
20260510124750 11 58 1.6 4.8 0.00 0.00 0.00 74 1017.4
20260510124250 11 250 1.6 6.4 0.00 0.00 0.00 75 1017.4
20260510123750 11 34 1.6 11.3 0.00 0.00 0.00 74 1017.6
20260510123250 11 118 1.6 8.0 0.00 0.00 0.00 74 1017.4
20260510122750 11 345 1.6 9.7 0.00 0.00 0.00 75 1017.5
20260510122250 11 314 1.6 12.9 0.00 0.00 0.00 77 1017.6
20260510121750 11 274 1.6 11.3 0.00 0.00 0.00 76 1017.8
20260510121250 11 28 1.6 9.7 0.00 0.00 0.00 76 1018.0
20260510120750 11 337 1.6 12.9 0.00 0.00 0.00 77 1017.9
20260510120250 11 148 1.6 9.7 0.00 0.00 0.00 76 1018.0
20260510115750 11 314 3.2 9.7 0.00 0.00 0.00 77 1018.0
20260510115250 11 79 3.2 11.3 0.00 0.00 0.00 76 1018.2
20260510114750 11 13 1.6 12.9 0.00 0.00 0.00 76 1018.2
20260510114250 11 301 3.2 8.0 0.00 0.00 0.00 77 1018.3
20260510113750 11 320 1.6 11.3 0.00 0.00 0.00 78 1018.3
20260510113250 11 347 1.6 4.8 0.00 0.00 0.00 79 1018.2
20260510112750 11 353 1.6 8.0 0.00 0.00 0.00 79 1018.3
20260510112250 10 243 1.6 9.7 0.00 0.00 0.00 78 1018.4
20260510111750 10 13 1.6 9.7 0.00 0.00 0.00 79 1018.5
20260510111728 10 267 1.6 6.4 0.00 0.00 0.00 81 1018.5
20260510111250 10 338 1.6 9.7 0.00 0.00 0.00 79 1018.5
20260510110750 10 353 1.6 4.8 0.00 0.00 0.00 80 1018.6
20260510110250 10 267 1.6 6.4 0.00 0.00 0.00 81 1018.5
20260510105750 10 98 1.6 8.0 0.00 0.00 0.00 81 1018.6
20260510105250 10 131 1.6 6.4 0.00 0.00 0.00 82 1018.8
20260510104750 10 257 1.6 9.7 0.00 0.00 0.00 82 1018.9
20260510104250 9 79 1.6 3.2 0.00 0.00 0.00 81 1018.8
20260510103750 9 312 1.6 9.7 0.00 0.00 0.00 82 1018.8
20260510103250 9 345 1.6 12.9 0.00 0.00 0.00 81 1018.9
20260510102750 9 273 1.6 6.4 0.00 0.00 0.00 82 1018.8
20260510102250 9 274 1.6 6.4 0.00 0.00 0.00 83 1018.8
20260510101750 9 104 1.6 11.3 0.00 0.00 0.00 82 1018.9
20260510101250 9 37 1.6 8.0 0.00 0.00 0.00 83 1018.9
20260510100750 9 72 1.6 17.7 0.00 0.00 0.00 82 1018.9
20260510100250 9 3 1.6 9.7 0.00 0.00 0.00 83 1019.0
20260510095750 9 24 1.6 8.0 0.00 0.00 0.00 83 1019.0
20260510095250 9 47 1.6 8.0 0.00 0.00 0.00 83 1018.9
20260510094750 9 97 1.6 12.9 0.00 0.00 0.00 83 1018.9
20260510094250 9 28 1.6 11.3 0.00 0.00 0.00 84 1018.9
20260510093750 9 117 1.6 8.0 0.00 0.00 0.00 83 1018.9
20260510093332 9 356 1.6 6.4 0.00 0.00 0.00 84 1018.9
20260510093250 9 356 1.6 6.4 0.00 0.00 0.00 84 1018.9
20260510092750 8 300 1.6 9.7 0.00 0.00 0.00 84 1018.9
20260510092250 8 323 1.6 4.8 0.00 0.00 0.00 85 1018.9
20260510092209 8 267 1.6 8.0 0.00 0.00 0.00 85 1018.9
20260510091750 8 267 1.6 8.0 0.00 0.00 0.00 85 1018.9
20260510091250 8 245 1.6 8.0 0.00 0.00 0.00 85 1019.0
20260510090750 8 84 1.6 17.7 0.00 0.00 0.00 85 1018.8
20260510090250 8 252 1.6 6.4 0.00 0.00 0.00 85 1018.9
20260510085750 8 281 1.6 9.7 0.00 0.00 0.00 85 1019.0
20260510085250 8 79 1.6 9.7 0.00 0.00 0.00 85 1019.0
20260510084750 8 90 1.6 9.7 0.00 0.00 0.00 85 1019.0
20260510084250 8 29 0.0 8.0 0.00 0.00 0.00 85 1019.1
20260510083750 8 27 1.6 6.4 0.00 0.00 0.00 86 1019.2
20260510083250 8 350 1.6 8.0 0.00 0.00 0.00 86 1019.2
20260510082750 8 18 1.6 11.3 0.00 0.00 0.00 86 1019.2
20260510082250 8 116 1.6 6.4 0.00 0.00 0.00 86 1019.2
20260510081750 8 18 1.6 9.7 0.00 0.00 0.00 86 1019.2
20260510081250 8 315 1.6 11.3 0.00 0.00 0.00 86 1019.3
20260510080750 8 54 3.2 11.3 0.00 0.00 0.00 86 1019.3
20260510080250 8 46 1.6 11.3 0.00 0.00 0.00 86 1019.2
20260510075750 8 252 1.6 6.4 0.00 0.00 0.00 86 1019.2
20260510075250 8 294 1.6 12.9 0.00 0.00 0.00 86 1019.2
20260510074750 8 337 1.6 9.7 0.00 0.00 0.00 86 1019.2
20260510074250 8 10 1.6 8.0 0.00 0.00 0.00 86 1019.1
20260510073750 8 306 1.6 9.7 0.00 0.00 0.00 86 1019.1
20260510073251 8 20 1.6 11.3 0.00 0.00 0.00 87 1019.1
20260510072750 8 328 1.6 9.7 0.00 0.00 0.00 87 1019.1
20260510072250 8 20 1.6 9.7 0.00 0.00 0.00 87 1018.9
20260510071750 8 340 1.6 9.7 0.00 0.00 0.00 87 1019.0
20260510071250 8 23 1.6 9.7 0.00 0.00 0.00 87 1019.0
20260510070750 8 45 1.6 6.4 0.00 0.00 0.00 87 1019.0
20260510070250 8 18 3.2 9.7 0.00 0.00 0.00 87 1019.0
20260510065750 8 32 1.6 14.5 0.00 0.00 0.00 87 1019.0
20260510065250 8 341 1.6 8.0 0.00 0.00 0.00 87 1018.9
20260510064750 8 347 3.2 17.7 0.00 0.00 0.00 87 1018.9
20260510064250 8 307 3.2 14.5 0.00 0.00 0.00 87 1018.8
20260510063750 8 125 1.6 8.0 0.00 0.00 0.00 87 1018.8
20260510063254 8 49 1.6 6.4 0.00 0.00 4.75 87 0.1
20260510063250 8 49 1.6 6.4 0.00 0.00 0.00 87 1018.7
20260510062750 8 21 1.6 9.7 0.00 0.00 0.00 87 1018.7
20260510062250 8 340 1.6 9.7 0.00 0.00 0.00 88 1018.7
20260510061750 8 76 3.2 12.9 0.00 0.00 0.00 87 1018.7
20260510061250 8 307 3.2 17.7 0.00 0.00 0.00 88 1018.5
20260510060750 8 0 3.2 14.5 0.00 0.00 0.00 88 1018.6
20260510060250 8 30 3.2 12.9 0.00 0.00 0.00 88 1018.5
20260510055750 8 318 3.2 9.7 0.00 0.00 0.00 88 1018.4
20260510055251 8 329 3.2 17.7 0.00 0.00 0.00 88 1018.6
20260510054750 8 59 3.2 16.1 0.00 0.00 0.00 88 1018.5
20260510054250 8 53 1.6 12.9 0.00 0.00 0.00 88 1018.5
20260510053750 8 31 1.6 6.4 0.00 0.00 0.00 88 1018.5
20260510053251 8 85 1.6 11.3 0.00 0.00 0.00 88 1018.5
20260510052751 8 348 1.6 14.5 0.00 0.00 0.00 88 1018.5
20260510052251 8 105 1.6 9.7 0.00 0.00 0.00 88 1018.4
20260510051751 8 165 1.6 8.0 0.00 0.00 0.00 88 1018.4
20260510051251 8 54 1.6 8.0 0.00 0.00 0.00 88 1018.5
20260510050751 8 310 3.2 12.9 0.00 0.00 0.00 88 1018.6
20260510050251 8 299 3.2 12.9 0.00 0.00 0.00 88 1018.6
20260510045751 8 354 1.6 11.3 0.00 0.00 0.00 88 1018.5
20260510045251 8 139 1.6 12.9 0.00 0.00 0.00 88 1018.7
20260510044751 8 206 1.6 4.8 0.00 0.00 0.00 88 1018.6
20260510044251 8 350 1.6 9.7 0.00 0.00 0.00 88 1018.7
20260510043751 8 307 1.6 11.3 0.00 0.00 0.00 88 1018.6
20260510043251 8 316 1.6 11.3 0.00 0.00 0.00 88 1018.6
20260510042751 8 12 1.6 11.3 0.00 0.00 0.00 88 1018.6
20260510042251 8 67 1.6 8.0 0.00 0.00 0.00 88 1018.8
20260510041751 8 267 1.6 9.7 0.00 0.00 0.00 88 1018.7
20260510041251 8 321 1.6 11.3 0.00 0.00 0.00 88 1018.8
20260510040751 8 23 1.6 11.3 0.00 0.00 0.00 88 1018.7
20260510040251 8 269 1.6 4.8 0.00 0.00 0.00 88 1018.8
20260510035751 8 347 1.6 11.3 0.00 0.00 0.00 88 1018.9
20260510035251 8 347 1.6 16.1 0.00 0.00 0.00 88 1018.9
20260510034751 8 351 1.6 8.0 0.00 0.00 0.00 88 1018.8
20260510034251 8 0 1.6 8.0 0.00 0.00 0.00 88 1019.0
20260510033751 8 293 1.6 11.3 0.00 0.00 0.00 88 1019.0
20260510033251 8 8 1.6 9.7 0.00 0.00 0.00 89 1019.0
20260510032751 8 229 1.6 9.7 0.00 0.00 0.00 89 1019.1
20260510032251 8 334 1.6 16.1 0.00 0.00 0.00 89 1019.0
20260510031751 8 332 1.6 14.5 0.00 0.03 0.00 89 1018.9
20260510031251 8 308 1.6 12.9 0.00 0.03 0.00 89 1019.0
20260510030751 8 273 1.6 11.3 0.00 0.03 0.00 89 1019.0
20260510030251 8 322 1.6 9.7 0.00 0.03 0.00 89 1019.1
20260510025751 8 323 1.6 9.7 0.00 0.03 0.00 89 1019.2
20260510025251 8 324 1.6 6.4 0.00 0.03 0.00 89 1019.2
20260510024751 8 327 0.0 4.8 0.00 0.03 0.00 89 1019.2
20260510024251 8 77 1.6 4.8 0.00 0.03 0.00 89 1019.2
20260510023751 8 311 1.6 8.0 0.00 0.03 0.00 89 1019.2
20260510023251 8 130 0.0 6.4 0.00 0.03 0.00 89 1019.2
20260510022751 8 99 1.6 6.4 0.00 0.03 0.00 88 1019.1
20260510022251 8 308 1.6 9.7 0.00 0.03 0.00 88 1019.0
20260510021751 8 246 1.6 8.0 0.00 0.03 0.00 88 1018.8
20260510021251 8 168 1.6 8.0 0.00 0.03 0.00 88 1018.9
20260510020751 8 318 1.6 9.7 0.00 0.03 0.00 88 1019.0
20260510020251 8 317 1.6 6.4 0.00 0.03 0.00 88 1019.0
20260510015751 8 277 1.6 14.5 0.00 0.03 0.00 88 1018.9
20260510015251 8 79 1.6 11.3 0.00 0.03 0.00 88 1019.0
20260510014751 8 153 1.6 9.7 0.00 0.03 0.00 88 1019.0
20260510014251 8 112 1.6 9.7 0.00 0.03 0.00 88 1019.0
20260510013751 8 34 1.6 12.9 0.00 0.03 0.00 88 1018.9
20260510013251 8 138 1.6 12.9 0.00 0.03 0.00 88 1019.2
20260510012751 8 109 3.2 8.0 0.00 0.03 0.00 88 1019.1
20260510012251 8 322 1.6 19.3 0.00 0.03 0.00 88 1019.1
20260510011751 8 44 1.6 11.3 0.00 0.03 0.00 88 1019.2
20260510011251 8 221 3.2 6.4 0.00 0.03 0.00 88 1019.3
20260510010751 8 330 1.6 11.3 0.00 0.03 0.00 88 1019.4
20260510010251 8 330 1.6 6.4 0.00 0.03 0.00 88 1019.5
20260510005751 8 338 1.6 9.7 0.00 0.03 0.00 87 1019.6
20260510005251 8 60 1.6 6.4 0.00 0.03 0.00 87 1019.4
20260510004751 8 115 1.6 3.2 0.00 0.03 0.00 87 1019.2
20260510004251 8 273 1.6 11.3 0.00 0.03 0.00 86 1018.9
20260510003751 8 276 1.6 11.3 0.00 0.03 0.00 86 1019.0
20260510003251 8 9 3.2 14.5 0.00 0.03 0.00 86 1018.9
20260510002751 8 349 1.6 17.7 0.00 0.03 0.00 86 1018.9
20260510002251 8 331 1.6 8.0 0.00 0.03 0.00 86 1018.9
20260510001751 8 285 1.6 11.3 0.00 0.03 0.00 86 1019.0
20260510001251 9 341 1.6 4.8 0.00 0.03 0.03 86 1018.9
20260510000751 9 347 1.6 12.9 0.00 0.03 0.03 86 1019.1
20260510000251 9 70 3.2 9.7 0.00 0.03 0.03 86 1018.9
20260509235751 9 25 1.6 8.0 0.00 0.03 0.03 86 1019.0
20260509235251 9 255 1.6 11.3 0.00 0.03 0.03 86 1019.0
20260509234751 9 329 1.6 12.9 0.00 0.03 0.03 86 1019.0
20260509234251 9 6 3.2 8.0 0.00 0.03 0.03 86 1018.9
20260509233751 9 282 1.6 11.3 0.00 0.03 0.03 86 1018.9
20260509233251 9 320 3.2 11.3 0.00 0.03 0.03 86 1018.9
20260509232751 9 344 3.2 22.5 0.00 0.03 0.03 86 1018.8
20260509232251 9 3 1.6 12.9 0.00 0.03 0.03 86 1018.8
20260509231751 10 293 3.2 11.3 0.00 0.03 0.03 86 1018.8
20260509231251 10 78 3.2 14.5 0.00 0.03 0.03 86 1018.8
20260509230751 10 340 3.2 14.5 0.00 0.03 0.03 86 1018.8
20260509230251 10 23 1.6 12.9 0.00 0.03 0.03 86 1018.8
20260509225751 10 138 1.6 12.9 0.00 0.03 0.03 85 1018.8
20260509225251 10 18 1.6 8.0 0.00 0.03 0.03 85 1018.7
20260509224751 10 270 1.6 8.0 0.00 0.03 0.03 85 1018.7
20260509224251 10 3 1.6 9.7 0.00 0.03 0.03 85 1018.7
20260509223751 10 8 1.6 9.7 0.00 0.03 0.03 84 1018.6
20260509223251 10 281 3.2 11.3 0.00 0.03 0.03 84 1018.7
20260509222751 10 335 3.2 14.5 0.00 0.03 0.03 84 1018.7
20260509222251 11 342 1.6 11.3 0.00 0.03 0.03 84 1018.9
20260509221751 11 344 3.2 17.7 0.00 0.03 0.03 84 1018.7
20260509221251 11 263 3.2 11.3 0.00 0.03 0.03 84 1018.7
20260509220751 11 327 3.2 12.9 0.00 0.03 0.03 84 1018.8
20260509220251 11 275 1.6 8.0 0.00 0.03 0.03 83 1018.7
20260509215751 11 309 3.2 16.1 0.00 0.03 0.03 83 1018.8
20260509215251 11 6 1.6 9.7 0.00 0.03 0.03 83 1018.7
20260509214751 11 23 1.6 6.4 0.00 0.03 0.03 83 1018.7
20260509214251 11 297 1.6 6.4 0.00 0.03 0.03 83 1018.7
20260509213751 12 116 1.6 8.0 0.00 0.03 0.03 83 1018.7
20260509213251 12 101 3.2 8.0 0.00 0.03 0.03 82 1018.6
20260509212751 12 223 1.6 11.3 0.00 0.03 0.03 82 1018.6
20260509212252 12 229 1.6 12.9 0.00 0.03 0.03 82 1018.5
20260509211751 12 121 1.6 11.3 0.00 0.03 0.03 82 1018.5
20260509211252 12 318 1.6 11.3 0.00 0.03 0.03 82 1018.4
20260509210751 12 338 1.6 8.0 0.00 0.03 0.03 82 1018.2
20260509210252 12 53 1.6 12.9 0.00 0.03 0.03 81 1018.1
20260509205752 12 117 1.6 14.5 0.00 0.03 0.03 81 1018.0
20260509205252 12 292 1.6 8.0 0.00 0.03 0.03 81 1018.1
20260509204752 12 20 1.6 6.4 0.00 0.03 0.03 81 1018.0
20260509204252 12 198 1.6 6.4 0.00 0.03 0.03 81 1018.1
20260509203752 13 68 1.6 9.7 0.00 0.03 0.03 81 1018.1
20260509203252 13 32 1.6 3.2 0.00 0.03 0.03 81 1018.1
20260509202752 13 295 1.6 9.7 0.00 0.03 0.03 81 1018.1
20260509202252 13 40 1.6 6.4 0.00 0.03 0.03 81 1018.1
20260509202109 13 341 1.6 4.8 0.00 0.03 0.03 80 1018.0
20260509201752 13 341 1.6 4.8 0.00 0.03 0.03 80 1018.0
20260509201252 13 16 1.6 11.3 0.00 0.03 0.03 80 1017.9
20260509200752 13 359 1.6 11.3 0.00 0.03 0.03 80 1017.9
20260509200252 13 4 1.6 11.3 0.00 0.03 0.03 80 1017.9
20260509195752 13 31 1.6 4.8 0.00 0.03 0.03 80 1017.8
20260509195252 13 9 1.6 9.7 0.00 0.03 0.03 79 1017.8
20260509194752 13 10 1.6 8.0 0.00 0.03 0.03 79 1017.8
20260509194252 13 15 1.6 6.4 0.00 0.03 0.03 79 1017.7
20260509193752 14 286 1.6 6.4 0.00 0.03 0.03 78 1017.6
20260509193252 14 1 1.6 8.0 0.00 0.03 0.03 77 1017.5
20260509192752 15 295 0.0 6.4 0.00 0.03 0.03 76 1017.5
20260509192252 15 18 0.0 3.2 0.00 0.03 0.03 75 1017.3
20260509191752 15 221 0.0 4.8 0.00 0.03 0.03 73 1017.4
20260509191252 15 249 1.6 6.4 0.00 0.03 0.03 70 1017.2
20260509190752 16 335 1.6 6.4 0.00 0.03 0.03 67 1017.3